EW6288 Weather Reports


time (UTC)temp
C
wind
direction
speed
KPH
gust
KPH
rain 1hr
cm
rain 24hr
cm
rain mn
cm
humidity
%
barometer
mb
20260506193109 29 167 3.2 11.3 0.00 0.00 0.00 81 1008.3
20260506192606 29 159 1.6 9.7 0.00 0.00 0.00 81 1008.5
20260506192107 29 165 3.2 9.7 0.00 0.00 0.00 81 1008.5
20260506191605 29 151 1.6 8.0 0.00 0.00 0.00 81 1008.7
20260506191338 29 183 1.6 8.0 0.00 0.00 0.00 81 1008.7
20260506190606 28 171 3.2 8.0 0.00 0.00 0.00 81 1008.7
20260506190106 28 164 1.6 11.3 0.00 0.00 0.00 81 1008.8
20260506185836 28 242 1.6 11.3 0.00 0.00 0.00 83 1008.9
20260506185104 28 149 1.6 11.3 0.00 0.00 0.00 83 1008.9
20260506184605 28 132 1.6 11.3 0.00 0.00 0.00 83 1009.0
20260506184334 28 113 1.6 6.4 0.00 0.00 0.00 82 1009.0
20260506183606 28 113 1.6 11.3 0.00 0.00 0.00 83 1009.1
20260506183105 28 146 1.6 11.3 0.00 0.00 0.00 84 1009.2
20260506182834 28 128 1.6 8.0 0.00 0.00 0.00 85 1009.2
20260506182107 27 128 3.2 11.3 0.00 0.00 0.00 84 1009.4
20260506181603 27 142 1.6 11.3 0.00 0.00 0.00 85 1009.6
20260506181100 27 163 1.6 6.4 0.00 0.00 0.00 86 1009.6
20260506180604 27 159 1.6 6.4 0.00 0.00 0.00 86 1009.7
20260506175601 27 220 0.0 4.8 0.00 0.00 0.00 87 1009.9
20260506175058 27 221 1.6 9.7 0.00 0.00 0.00 87 1010.0
20260506174558 27 152 1.6 9.7 0.00 0.00 0.00 88 1010.0
20260506174057 27 136 0.0 8.0 0.00 0.00 0.00 88 1010.1
20260506173834 27 131 0.0 3.2 0.00 0.00 0.00 88 1010.2
20260506173058 27 135 0.0 3.2 0.00 0.00 0.00 88 1010.2
20260506172558 27 136 0.0 3.2 0.00 0.00 0.00 88 1010.3
20260506172101 27 125 1.6 3.2 0.00 0.00 0.00 88 1010.3
20260506171555 27 125 0.0 3.2 0.00 0.00 0.00 88 1010.4
20260506171057 27 125 0.0 1.6 0.00 0.00 0.00 88 1010.5
20260506170556 26 125 0.0 3.2 0.00 0.00 0.00 87 1010.5
20260506170056 26 125 0.0 6.4 0.00 0.00 0.00 87 1010.5
20260506165555 26 126 0.0 6.4 0.00 0.00 0.00 87 1010.6
20260506165053 26 126 1.6 6.4 0.00 0.00 0.00 87 1010.6
20260506164552 26 137 1.6 8.0 0.00 0.00 0.00 87 1010.4
20260506164053 26 186 1.6 8.0 0.00 0.00 0.00 87 1010.4
20260506163553 26 120 1.6 8.0 0.00 0.00 0.00 87 1010.5
20260506163049 26 176 3.2 9.7 0.00 0.00 0.00 87 1010.3
20260506162547 26 121 3.2 9.7 0.00 0.00 0.00 87 1010.3
20260506162047 26 152 3.2 9.7 0.00 0.00 0.00 87 1010.3
20260506161547 26 138 3.2 8.0 0.00 0.00 0.00 87 1010.2
20260506161046 26 127 3.2 9.7 0.00 0.00 0.00 87 1010.3
20260506160547 26 151 4.8 11.3 0.00 0.00 0.00 87 1010.2
20260506160042 26 135 3.2 11.3 0.00 0.00 0.00 87 1010.1
20260506155813 26 167 1.6 9.7 0.00 0.00 0.00 87 1010.2
20260506155043 26 195 1.6 6.4 0.00 0.00 0.00 88 1010.1
20260506154542 26 140 3.2 8.0 0.00 0.00 0.00 88 1010.1
20260506154042 26 144 1.6 8.0 0.00 0.00 0.00 88 1010.1
20260506153539 26 117 1.6 9.7 0.00 0.00 0.00 88 1010.1
20260506153038 26 182 1.6 9.7 0.00 0.00 0.00 88 1010.1
20260506152536 26 121 3.2 9.7 0.00 0.00 0.00 88 1009.8
20260506152310 26 103 3.2 9.7 0.00 0.00 0.00 88 1009.6
20260506151805 26 155 1.6 8.0 0.00 0.00 0.00 88 1009.6
20260506151303 26 151 1.6 8.0 0.00 0.00 0.00 88 1009.6
20260506150535 26 147 1.6 11.3 0.00 0.00 0.00 88 1009.6
20260506150030 26 169 1.6 11.3 0.00 0.00 0.00 88 1009.6
20260506145529 26 169 1.6 9.7 0.00 0.00 0.00 89 1009.5
20260506145306 26 146 1.6 6.4 0.00 0.00 0.00 89 1009.1
20260506145029 26 152 1.6 8.0 0.00 0.00 0.00 89 1009.4
20260506144029 26 148 1.6 9.7 0.00 0.00 0.00 89 1009.1
20260506143527 26 150 1.6 14.5 0.00 0.00 0.00 89 1008.9
20260506143258 26 139 1.6 14.5 0.00 0.00 0.00 89 1009.0
20260506142525 26 123 3.2 14.5 0.00 0.00 0.00 89 1009.0
20260506142025 26 150 3.2 14.5 0.00 0.00 0.00 89 1008.9
20260506141527 26 165 3.2 11.3 0.00 0.00 0.00 89 1009.0
20260506141027 25 144 1.6 11.3 0.00 0.00 0.00 89 1009.1
20260506140523 25 126 3.2 9.7 0.00 0.00 0.00 89 1009.2
20260506140023 25 189 3.2 9.7 0.00 0.00 0.00 89 1009.1
20260506135522 25 107 3.2 11.3 0.00 0.00 0.00 89 1009.2
20260506135019 25 139 3.2 11.3 0.00 0.00 0.00 89 1009.2
20260506134752 25 116 3.2 9.7 0.00 0.00 0.00 89 1009.2
20260506134017 25 163 3.2 11.3 0.00 0.00 0.00 89 1009.2
20260506133513 25 144 3.2 11.3 0.00 0.00 0.00 89 1009.2
20260506133014 25 123 3.2 9.7 0.00 0.00 0.00 89 1009.4
20260506132515 25 138 3.2 9.7 0.00 0.00 0.00 89 1009.5
20260506132014 25 144 1.6 6.4 0.00 0.00 0.00 89 1009.4
20260506131514 25 155 0.0 4.8 0.00 0.00 0.00 89 1009.4
20260506131013 25 154 0.0 8.0 0.00 0.00 0.00 89 1009.5
20260506130514 25 154 0.0 8.0 0.00 0.00 0.00 89 1009.5
20260506130013 25 155 1.6 9.7 0.00 0.00 0.00 89 1009.5
20260506125510 25 157 1.6 9.7 0.00 0.00 0.00 89 1009.5
20260506125007 25 131 1.6 6.4 0.00 0.00 0.00 89 1009.5
20260506124506 25 122 1.6 9.7 0.00 0.00 0.00 88 1009.4
20260506124006 25 160 3.2 9.7 0.00 0.00 0.00 88 1009.4
20260506123505 25 179 3.2 8.0 0.00 0.00 0.00 88 1009.4
20260506123006 25 173 3.2 8.0 0.00 0.00 0.00 88 1009.2
20260506122506 25 139 1.6 4.8 0.00 0.00 0.00 88 1009.2
20260506122005 25 148 1.6 6.4 0.00 0.00 0.00 88 1009.1
20260506121506 25 141 1.6 6.4 0.00 0.00 0.00 88 1009.0
20260506121236 25 123 1.6 6.4 0.00 0.00 0.00 88 1009.0
20260506120502 25 107 1.6 6.4 0.00 0.00 0.00 88 1008.9
20260506120001 25 161 1.6 6.4 0.00 0.00 0.00 88 1008.8
20260506115501 25 104 1.6 12.9 0.00 0.00 0.00 88 1008.8
20260506115233 25 140 1.6 12.9 0.00 0.00 0.00 88 1008.7
20260506114501 25 142 1.6 4.8 0.00 0.00 0.00 88 1008.6
20260506114000 25 126 1.6 8.0 0.00 0.00 0.00 88 1008.6
20260506113731 25 154 1.6 8.0 0.00 0.00 0.00 88 1008.5
20260506112958 25 155 1.6 8.0 0.00 0.00 0.00 88 1008.4
20260506112502 25 132 1.6 11.3 0.00 0.00 0.00 88 1008.3
20260506112457 25 141 1.6 11.3 0.00 0.00 0.00 88 1008.3
20260506111456 25 128 3.2 11.3 0.00 0.00 0.00 88 1008.3
20260506110956 25 136 3.2 11.3 0.00 0.00 0.00 88 1008.2
20260506110458 25 166 1.6 6.4 0.00 0.00 0.00 88 1008.1
20260506110228 25 124 1.6 6.4 0.00 0.00 0.00 88 1008.1
20260506105454 25 129 1.6 6.4 0.00 0.00 0.00 88 1008.0
20260506105228 25 137 1.6 6.4 0.00 0.00 0.00 88 1008.0
20260506104454 25 158 0.0 3.2 0.00 0.00 0.00 87 1008.0
20260506103957 25 158 1.6 6.4 0.00 0.00 0.00 87 1008.0
20260506103454 25 159 1.6 6.4 0.00 0.00 0.00 87 1008.1
20260506102953 25 150 1.6 6.4 0.00 0.00 0.00 87 1008.1
20260506102453 25 143 1.6 9.7 0.00 0.00 0.00 87 1008.0
20260506101954 25 164 1.6 9.7 0.00 0.00 0.00 87 1008.0
20260506101454 25 126 1.6 8.0 0.00 0.00 0.00 87 1008.0
20260506100955 25 112 1.6 8.0 0.00 0.00 0.00 87 1007.9
20260506100455 25 139 1.6 6.4 0.00 0.00 0.00 87 1008.0
20260506095954 25 153 1.6 8.0 0.00 0.00 0.00 87 1008.0
20260506095453 25 157 1.6 8.0 0.00 0.00 0.00 87 1008.0
20260506094954 25 159 1.6 8.0 0.00 0.00 0.00 87 1007.9
20260506094458 25 155 1.6 4.8 0.00 0.00 0.00 87 1007.8
20260506094453 25 159 1.6 8.0 0.00 0.00 0.00 87 1007.8
20260506093451 25 155 1.6 4.8 0.00 0.00 0.00 87 1007.8
20260506092952 25 142 1.6 4.8 0.00 0.00 0.00 87 1007.9
20260506092454 25 148 1.6 4.8 0.00 0.00 0.00 87 1007.8
20260506091950 25 142 1.6 4.8 0.00 0.00 0.00 87 1007.8
20260506091451 25 142 1.6 4.8 0.00 0.00 0.00 87 1008.0
20260506090950 25 141 1.6 9.7 0.00 0.00 0.00 87 1008.0
20260506090448 25 141 1.6 9.7 0.00 0.00 0.00 87 1008.0
20260506085951 25 150 1.6 9.7 0.00 0.00 0.00 87 1008.1
20260506085946 25 163 3.2 9.7 0.00 0.00 0.00 87 1008.1
20260506084942 25 113 1.6 6.4 0.00 0.00 0.00 87 1008.1
20260506084441 25 136 1.6 6.4 0.00 0.00 0.00 86 1008.1
20260506083943 25 178 1.6 6.4 0.00 0.00 0.00 86 1008.1
20260506083441 25 153 1.6 6.4 0.00 0.00 0.00 86 1008.2
20260506082940 25 161 1.6 9.7 0.00 0.00 0.00 86 1008.2
20260506082439 25 161 1.6 9.7 0.00 0.00 0.00 86 1008.3
20260506081940 25 160 3.2 9.7 0.00 0.00 0.00 86 1008.4
20260506081437 25 123 3.2 9.7 0.00 0.00 0.00 86 1008.3
20260506080943 25 131 3.2 9.7 0.00 0.00 0.00 86 1008.3
20260506080937 25 117 3.2 9.7 0.00 0.00 0.00 86 1008.3
20260506073428 25 136 1.6 3.2 0.00 0.00 0.00 86 1008.6
20260506072926 25 154 1.6 3.2 0.00 0.00 0.00 86 1008.7
20260506072655 25 154 0.0 8.0 0.00 0.00 0.00 86 1008.6
20260506072155 25 154 1.6 8.0 0.00 0.00 0.00 86 1008.7
20260506071425 25 155 1.6 9.7 0.00 0.00 0.00 86 1008.8
20260506070923 25 155 1.6 9.7 0.00 0.00 0.00 86 1008.8
20260506070423 25 169 1.6 11.3 0.00 0.00 0.00 86 1008.8
20260506070154 25 127 1.6 11.3 0.00 0.00 0.00 86 1008.8
20260506062413 25 128 1.6 9.7 0.00 0.00 0.00 86 1009.1
20260506061913 25 126 1.6 8.0 0.00 0.00 0.00 85 1009.1
20260506061412 25 145 1.6 8.0 0.00 0.00 0.00 85 1009.2
20260506060909 26 130 1.6 12.9 0.00 0.00 0.00 85 1009.1
20260506060412 25 138 1.6 12.9 0.00 0.00 0.00 85 1009.1
20260506051357 26 164 3.2 11.3 0.00 0.00 0.00 85 1008.9
20260506050857 26 149 3.2 11.3 0.00 0.00 0.00 85 1009.0
20260506050356 26 124 3.2 11.3 0.00 0.00 0.00 85 1009.1
20260506050127 26 171 1.6 8.0 0.00 0.00 0.00 84 1009.1
20260506044853 26 108 1.6 6.4 0.00 0.00 0.00 84 1009.1
20260506044356 26 150 1.6 6.4 0.00 0.00 0.00 84 1009.1
20260506043851 26 157 1.6 9.7 0.00 0.00 0.00 84 1009.0
20260506043347 26 140 3.2 11.3 0.00 0.00 0.00 84 1009.0
20260506042846 26 158 3.2 11.3 0.00 0.00 0.00 84 1008.9
20260506042343 26 148 3.2 12.9 0.00 0.00 0.00 84 1008.8
20260506042116 26 155 3.2 12.9 0.00 0.00 0.00 84 1008.9
20260506041342 26 166 3.2 8.0 0.00 0.00 0.00 84 1009.0
20260506041112 26 135 3.2 12.9 0.00 0.00 0.00 84 1009.1
20260506040342 26 112 4.8 12.9 0.00 0.00 0.00 83 1009.0
20260506035835 26 124 4.8 12.9 0.00 0.00 0.00 83 1008.9
20260506035336 26 138 4.8 12.9 0.00 0.00 0.00 83 1008.8
20260506035105 26 140 4.8 12.9 0.00 0.00 0.00 83 1008.8
20260506034607 26 123 3.2 12.9 0.00 0.00 0.00 83 1008.6
20260506033834 26 171 3.2 12.9 0.00 0.00 0.00 83 1008.6
20260506033333 26 144 3.2 12.9 0.00 0.00 0.00 83 1008.6
20260506032833 26 151 3.2 12.9 0.00 0.00 0.00 83 1008.4
20260506032603 26 134 3.2 11.3 0.00 0.00 0.00 83 1008.3
20260506032104 26 150 3.2 9.7 0.00 0.00 0.00 82 1008.4
20260506031334 26 120 3.2 9.7 0.00 0.00 0.00 82 1008.4
20260506030833 26 171 1.6 9.7 0.00 0.00 0.00 82 1008.5
20260506030333 26 125 1.6 12.9 0.00 0.00 0.00 82 1008.4
20260506025831 26 150 3.2 12.9 0.00 0.00 0.00 82 1008.2
20260506025332 26 190 3.2 12.9 0.00 0.00 0.00 82 1008.1
20260506024831 26 127 3.2 12.9 0.00 0.00 0.00 82 1008.1
20260506024329 26 152 4.8 16.1 0.00 0.00 0.00 82 1008.1
20260506023832 26 158 4.8 16.1 0.00 0.00 0.00 82 1008.1
20260506023327 26 163 4.8 14.5 0.00 0.00 0.00 82 1008.0
20260506022828 26 148 4.8 14.5 0.00 0.00 0.00 81 1007.8
20260506022558 26 120 3.2 12.9 0.00 0.00 0.00 81 1007.7
20260506021827 26 181 3.2 12.9 0.00 0.00 0.00 81 1007.7
20260506021327 26 187 3.2 9.7 0.00 0.00 0.00 81 1007.7
20260506020828 26 112 3.2 11.3 0.00 0.00 0.00 81 1007.7
20260506020557 26 117 4.8 17.7 0.00 0.00 0.00 81 1007.6
20260506020045 26 138 4.8 17.7 0.00 0.00 0.00 81 1007.5
20260506015315 26 169 4.8 14.5 0.00 0.00 0.00 80 1007.5
20260506014815 27 113 3.2 14.5 0.00 0.00 0.00 80 1007.4
20260506014316 27 155 3.2 14.5 0.00 0.00 0.00 80 1007.3
20260506014049 27 153 3.2 12.9 0.00 0.00 0.00 80 1007.2
20260506013311 27 167 4.8 12.9 0.00 0.00 0.00 80 1007.1
20260506012816 27 212 3.2 16.1 0.00 0.00 0.00 80 1007.0
20260506012811 27 147 4.8 14.5 0.00 0.00 0.00 80 1007.1
20260506011808 27 173 3.2 16.1 0.00 0.00 0.00 80 1006.9
20260506011312 27 237 3.2 16.1 0.00 0.00 0.00 79 1006.8
20260506010809 27 141 6.4 20.9 0.00 0.00 0.00 79 1006.8
20260506010308 27 155 4.8 20.9 0.00 0.00 0.00 79 1006.8
20260506005809 27 135 3.2 12.9 0.00 0.00 0.00 79 1006.8
20260506005309 27 165 3.2 12.9 0.00 0.00 0.00 79 1006.8
20260506004808 27 141 3.2 11.3 0.00 0.00 0.00 79 1006.7
20260506004310 27 161 3.2 14.5 0.00 0.00 0.00 79 1006.7
20260506003807 27 148 3.2 14.5 0.00 0.00 0.00 79 1006.5
20260506003308 27 162 4.8 14.5 0.00 0.00 0.00 79 1006.5
20260506002801 27 161 4.8 14.5 0.00 0.00 0.00 79 1006.5
20260506002305 27 123 4.8 16.1 0.00 0.00 0.00 78 1006.4
20260506001800 27 134 3.2 16.1 0.00 0.00 0.00 78 1006.4
20260506001303 27 152 3.2 11.3 0.00 0.00 0.00 78 1006.5
20260506000802 27 172 4.8 12.9 0.00 0.00 0.00 78 1006.5
20260506000257 27 168 4.8 12.9 0.00 0.00 0.00 78 1006.5
20260505235757 27 148 3.2 12.9 0.00 0.00 0.00 78 1006.4
20260505235255 27 167 4.8 12.9 0.00 0.00 0.00 78 1006.4
20260505234756 27 160 4.8 16.1 0.00 0.00 0.00 78 1006.3
20260505234255 27 167 4.8 16.1 0.00 0.00 0.00 78 1006.4
20260505234027 27 162 4.8 12.9 0.00 0.00 0.00 78 1006.4
20260505233254 27 119 4.8 12.9 0.00 0.00 0.00 78 1006.5
20260505232754 28 197 3.2 11.3 0.00 0.00 0.00 78 1006.5
20260505232523 28 150 3.2 11.3 0.00 0.00 0.00 78 1006.4
20260505231753 28 156 4.8 14.5 0.00 0.00 0.00 78 1006.4
20260505231256 28 196 4.8 14.5 0.00 0.00 0.00 78 1006.6
20260505230753 28 121 4.8 12.9 0.00 0.00 0.00 78 1006.5
20260505230252 28 181 4.8 14.5 0.00 0.00 0.00 78 1006.5
20260505225748 28 150 3.2 14.5 0.00 0.00 0.00 78 1006.5
20260505225520 28 124 3.2 12.9 0.00 0.00 0.00 78 1006.4
20260505224745 28 236 3.2 11.3 0.00 0.00 0.00 78 1006.4
20260505224244 28 139 1.6 11.3 0.00 0.00 0.00 78 1006.5
20260505224015 28 192 3.2 11.3 0.00 0.00 0.00 78 1006.5
20260505223245 28 195 3.2 11.3 0.00 0.00 0.00 78 1006.6
20260505222741 28 119 3.2 11.3 0.00 0.00 0.00 77 1006.5
20260505222242 28 153 3.2 14.5 0.00 0.00 0.00 78 1006.5
20260505221741 28 203 4.8 16.1 0.00 0.00 0.00 78 1006.5
20260505221229 28 143 4.8 16.1 0.00 0.00 0.00 78 1006.6
20260505220726 28 167 4.8 16.1 0.00 0.00 0.00 78 1006.6
20260505220229 28 179 4.8 17.7 0.00 0.00 0.00 78 1006.7
20260505215726 28 147 4.8 17.7 0.00 0.00 0.00 77 1006.7
20260505215228 28 106 4.8 20.9 0.00 0.00 0.00 77 1006.8
20260505215224 28 182 3.2 20.9 0.00 0.00 0.00 77 1006.7
20260505214229 28 163 4.8 20.9 0.00 0.00 0.00 76 1006.8
20260505213952 28 150 3.2 20.9 0.00 0.00 0.00 77 1006.8
20260505213451 28 222 3.2 12.9 0.00 0.00 0.00 76 1006.9
20260505212721 28 148 3.2 14.5 0.00 0.00 0.00 77 1007.0
20260505212452 28 172 3.2 14.5 0.00 0.00 0.00 77 1007.0
20260505211719 28 191 4.8 14.5 0.00 0.00 0.00 76 1007.0
20260505211217 28 238 4.8 12.9 0.00 0.00 0.00 76 1007.1
20260505210718 28 140 4.8 12.9 0.00 0.00 0.00 77 1007.1
20260505210216 28 135 4.8 12.9 0.00 0.00 0.00 77 1007.2
20260505205945 28 171 4.8 12.9 0.00 0.00 0.00 77 1007.3
20260505205445 28 150 3.2 12.9 0.00 0.00 0.00 78 1007.4
20260505204717 28 160 3.2 11.3 0.00 0.00 0.00 78 1007.4
20260505204212 28 164 3.2 12.9 0.00 0.00 0.00 78 1007.5
20260505203713 28 246 3.2 12.9 0.00 0.00 0.00 78 1007.5
20260505203213 28 124 1.6 12.9 0.00 0.00 0.00 78 1007.7
20260505202711 28 100 3.2 12.9 0.00 0.00 0.00 77 1007.7
20260505202209 28 231 3.2 12.9 0.00 0.00 0.00 77 1007.8
20260505201707 28 200 3.2 12.9 0.00 0.00 0.00 78 1008.0
20260505201208 28 158 3.2 11.3 0.00 0.00 0.00 77 1008.0
20260505200708 28 219 3.2 9.7 0.00 0.00 0.00 77 1007.9
20260505200206 28 188 3.2 11.3 0.00 0.00 0.00 77 1008.0
20260505195708 28 144 3.2 11.3 0.00 0.00 0.00 77 1008.1
20260505195207 28 209 4.8 11.3 0.00 0.00 0.00 77 1008.1
20260505194939 28 90 3.2 11.3 0.00 0.00 0.00 78 1008.1
20260505194438 28 138 3.2 12.9 0.00 0.00 0.00 78 1008.2
20260505193700 27 142 4.8 12.9 0.00 0.00 0.00 78 1008.3